Flag for U.S.A. Weather past 2 weeks in Washington DC, District of Columbia, U.S.A.

Now
79 °F

Overcast.


Feels Like: 82 °F
Forecast: 71 / 83 °F
Wind: No wind

Location: Reagan National Airport

Current Time: Jul 5, 2015 at 11:42:08 PM

Latest Report: Jul 5, 2015 at 10:52 PM


Visibility: 10 mi

Pressure: 30.13 "Hg

Humidity: 74%

Dew point: 70 °F

Location of Washington DCLocation

Historic Weather in Washington DC — Graph

°F

Washington DC temperature yesterday

Maximum temperature yesterday: 83 °F (at 3:52 PM)
Minimum temperature yesterday: 73 °F (at 1:52 AM)
Average temperature yesterday: 75 °F

Past Weeks' High & Low Weather Summary

 TemperatureHumidityPressure
High96 °F (Jun 23, 4:52 PM)94% (Jul 3, 6:02 AM)30.16 "Hg (Jul 3, 6:02 AM)
Low63 °F (Jun 29, 5:52 AM)36% (Jun 29, 4:52 PM)29.66 "Hg (Jun 28, 1:52 AM)
Average78 °F69%29.93 "Hg
* Reported Jun 20 9:59 PM — Jul 5 9:52 PM, Washington DC, Weather by CustomWeather, © 2015

Note: Actual official high and low records may vary slightly from our data, if they occured in-between our weather recording intervals... More about our weather records

Advertising

Washington DC weather history for previous 24 hours

 ConditionsComfort  
Time TempWeatherWind HumidityBarometerVisibility
9:52 PM
Sun, Jul 5
79 °FMostly cloudy.3 mph74%30.13 "Hg10 mi
8:52 PM80 °FMore clouds than sun.7 mph74%30.12 "Hg10 mi
7:52 PM81 °FMostly cloudy.7 mph72%30.12 "Hg10 mi
6:52 PM83 °FCloudy.6 mph65%30.09 "Hg10 mi
5:52 PM83 °FMostly cloudy.6 mph68%30.09 "Hg10 mi
4:52 PM84 °FCloudy.7 mph63%30.10 "Hg10 mi
3:52 PM85 °FPartly sunny.No wind57%30.11 "Hg10 mi
2:52 PM85 °FBroken clouds.No wind55%30.12 "Hg10 mi
1:52 PM83 °FPartly sunny.6 mph65%30.15 "Hg10 mi
12:52 PM81 °FPassing clouds.No wind67%30.15 "Hg10 mi
11:52 AM81 °FPartly sunny.No wind65%30.15 "Hg9 mi
10:52 AM79 °FPartly sunny.5 mph69%30.16 "Hg9 mi
9:52 AM75 °FPartly sunny.No wind76%30.15 "Hg6 mi
8:52 AM73 °FMore clouds than sun.3 mph79%30.15 "Hg7 mi
7:52 AM73 °FMore clouds than sun.5 mph81%30.14 "Hg7 mi
6:52 AM72 °FMore clouds than sun.3 mph81%30.12 "Hg5 mi
5:52 AM71 °FFog.5 mph87%30.08 "Hg5 mi
5:00 AM72 °FMostly cloudy.5 mph83%30.07 "Hg5 mi
3:52 AM73 °FMostly cloudy.6 mph84%30.07 "Hg4 mi
2:52 AM73 °FPartly cloudy.3 mph84%30.06 "Hg5 mi
1:52 AM74 °FMostly cloudy.6 mph85%30.05 "Hg4 mi
12:52 AM75 °FOvercast.3 mph85%30.05 "Hg3 mi
11:52 PM
Sat, Jul 4
74 °FPassing clouds.5 mph85%30.03 "Hg4 mi
Weather by CustomWeather, © 2015

See weather overviewHow to use our weather pages